Pueblo, CO

9:05 AM MDT on August 17, 2017 (GMT -0600)
Pueblo Memorial

Weather History for KPUB - March, 2013

Change the Weather History Date:

Sunday, March 31, 2013

  Actual Average Record
Temperature  
Mean Temperature 54 °F 46 °F  
Max Temperature 73 °F 63 °F 86 °F (1946)
Min Temperature 34 °F 30 °F 9 °F (1954)
Degree Days  
Heating Degree Days 11 19  
Month to date heating degree days 735 701  
Since 1 July heating degree days 4972 5005  
Cooling Degree Days 0 0  
Month to date cooling degree days 0 0  
Year to date cooling degree days 0 0  
Growing Degree Days 3 (Base 50)    
Moisture  
Dew Point 22 °F    
Average Humidity 38    
Maximum Humidity 70    
Minimum Humidity 6    
Precipitation  
Precipitation 0.00 in 0.03 in 0.99 in (1905)
Month to date precipitation 0.21 0.93  
Year to date precipitation 0.90 1.58  
Snow  
Snow 0.00 in 0.20 in 5.90 in (1988)
Month to date snowfall 5.7 5.7  
Since 1 July snowfall 20.4 27.5  
Snow Depth 0.00 in    
Sea Level Pressure  
Sea Level Pressure 29.94 in    
Wind  
Wind Speed 7 mph (ESE)    
Max Wind Speed 17 mph    
Max Gust Speed 21 mph    
Visibility 10 miles    
Events      
T = Trace of Precipitation, MM = Missing Value Source: NWS Daily Summary

Daily Weather History Graph

Daily Weather History Graph

Search for Another Location

Airport or City:

Trip Planner

Search our weather history database for the weather conditions in past years. The results will help you decide how hot, cold, wet, or windy it might be!

Date:

Astronomy

Mar. 31, 2013 Rise Set
Actual Time 6:44 AM MDT 7:20 PM MDT
Civil Twilight 6:17 AM MDT 7:47 PM MDT
Nautical Twilight 5:46 AM MDT 8:18 PM MDT
Astronomical Twilight 5:13 AM MDT 8:50 PM MDT
Moon No Moon Rise 9:37 AM MDT (3/31)
Length of Visible Light 13h 29m
Length of Day
12h 36m
Waning Gibbous, 77% of the Moon is Illuminated
Mar 31
Waning Gibbous
Apr 2
Last Quarter
Apr 10
New
Apr 18
First Quarter
Apr 25
Full

Hourly Weather History & Observations

Time (MDT) Temp. Dew Point Humidity Pressure Visibility Wind Dir Wind Speed Gust Speed Precip Events Conditions
12:53 AM 46.9 °F 33.1 °F 59% 30.11 in 10.0 mi East 3.5 mph - N/A   Mostly Cloudy
1:53 AM 46.9 °F 32.0 °F 56% 30.12 in 10.0 mi ESE 6.9 mph - N/A   Overcast
2:53 AM 46.9 °F 33.1 °F 59% 30.10 in 10.0 mi SSE 3.5 mph - N/A   Overcast
3:53 AM 46.0 °F 32.0 °F 58% 30.08 in 10.0 mi Calm Calm - N/A   Overcast
4:53 AM 46.0 °F 32.0 °F 58% 30.06 in 10.0 mi Calm Calm - N/A   Overcast
5:53 AM 44.1 °F 33.1 °F 65% 30.06 in 10.0 mi Calm Calm - N/A   Scattered Clouds
6:53 AM 35.1 °F 27.0 °F 72% 30.08 in 10.0 mi Calm Calm - N/A   Clear
7:53 AM 43.0 °F 32.0 °F 65% 30.09 in 10.0 mi Calm Calm - N/A   Clear
8:53 AM 48.0 °F 34.0 °F 58% 30.06 in 10.0 mi SW 4.6 mph - N/A   Clear
9:53 AM 53.1 °F 34.0 °F 48% 30.02 in 10.0 mi South 8.1 mph - N/A   Clear
10:53 AM 57.0 °F 32.0 °F 39% 29.99 in 10.0 mi SW 6.9 mph 18.4 mph N/A   Clear
11:53 AM 60.1 °F 30.0 °F 32% 29.96 in 10.0 mi SSE 6.9 mph - N/A   Clear
12:53 PM 64.9 °F 27.0 °F 24% 29.91 in 10.0 mi Variable 6.9 mph - N/A   Clear
1:53 PM 68.0 °F 21.9 °F 17% 29.87 in 10.0 mi SSW 10.4 mph - N/A   Clear
2:53 PM 71.1 °F 17.1 °F 13% 29.82 in 10.0 mi SE 8.1 mph - N/A   Clear
3:53 PM 73.0 °F 10.0 °F 9% 29.77 in 10.0 mi ESE 10.4 mph - N/A   Clear
4:53 PM 73.0 °F 1.9 °F 6% 29.75 in 10.0 mi ESE 10.4 mph 17.3 mph N/A   Clear
5:53 PM 72.0 °F 3.0 °F 7% 29.75 in 10.0 mi ESE 11.5 mph - N/A   Clear
6:53 PM 68.0 °F 10.0 °F 11% 29.80 in 10.0 mi East 9.2 mph - N/A   Clear
7:53 PM 60.1 °F 10.0 °F 14% 29.82 in 10.0 mi ENE 11.5 mph - N/A   Clear
8:53 PM 57.0 °F 10.0 °F 15% 29.84 in 10.0 mi NE 11.5 mph - N/A   Clear
9:53 PM 55.0 °F 12.0 °F 18% 29.86 in 10.0 mi NE 8.1 mph - N/A   Clear
10:53 PM 50.0 °F 15.1 °F 25% 29.89 in 10.0 mi NNW 6.9 mph - N/A   Clear
11:53 PM 48.9 °F 17.1 °F 28% 29.90 in 10.0 mi North 6.9 mph - N/A   Clear